Tracking 29892 objects as of 21-Nov-2024
HD Live streaming from Space Station
objects crossing your sky now

CZ-6A DEB

Track CZ-6A DEB now!
10-day predictions


NORAD ID: 54465
Int'l Code: 2022-151GR
Perigee: 536.9 km
Apogee: 654.2 km
Inclination: 98.6 °
Period: 96.4 minutes
Semi major axis: 6966 km
RCS: Unknown
Launch date: November 11, 2022
Source: People's Republic of China (PRC)
Launch site: Taiyaun Space Center, China (TSC)

Note: This is SATELLITE DEBRIS
Your satellite tracking list
Your tracking list is empty




NASA's NSSDC Master Catalog

Two Line Element Set (TLE):
1 54465U 22151GR  24326.08688859  .00061188  00000-0  54498-2 0  9990
2 54465  98.5689  14.3809 0084190 139.9443 220.8023 14.93051332108121
Source of the keplerian elements: AFSPC